New Castle, PA

4:14 PM EDT on August 25, 2016 (GMT -0400)
New Castle Municipal

Weather History for KUCP - December, 2012

Change the Weather History Date:

Friday, December 7, 2012

  Actual Average Record
Temperature  
Mean Temperature 40 °F -  
Max Temperature 46 °F 41 °F 65 °F (1956)
Min Temperature 35 °F 26 °F 5 °F (1926)
Degree Days  
Heating Degree Days 24    
Moisture  
Dew Point 41 °F    
Average Humidity 97    
Maximum Humidity 100    
Minimum Humidity 63    
Precipitation  
Precipitation 0.48 in - - ()
Sea Level Pressure  
Sea Level Pressure 29.98 in    
Wind  
Wind Speed 1 mph (SSE)    
Max Wind Speed 6 mph    
Max Gust Speed -    
Visibility 3 miles    
Events Fog , Rain    
Averages and records for this station are not official NWS values.
T = Trace of Precipitation, MM = Missing Value Source: NWS Daily Summary

Daily Weather History Graph

Daily Weather History Graph

Search for Another Location

Airport or City:

Trip Planner

Search our weather history database for the weather conditions in past years. The results will help you decide how hot, cold, wet, or windy it might be!

Date:

Astronomy

Dec. 07, 2012 Rise Set
Actual Time 7:33 AM EST 4:53 PM EST
Civil Twilight 7:02 AM EST 5:24 PM EST
Nautical Twilight 6:28 AM EST 5:58 PM EST
Astronomical Twilight 5:54 AM EST 6:31 PM EST
Moon 12:48 AM EST (12/7) 12:51 PM EST (12/7)
Length of Visible Light 10h 21m
Length of Day
9h 19m
Last Quarter, 39% of the Moon is Illuminated
Dec 7
Last Quarter
Dec 13
New
Dec 20
First Quarter
Dec 28
Full
Jan 4
Last Quarter

Hourly Weather History & Observations

Time (EST) Temp. Windchill Dew Point Humidity Pressure Visibility Wind Dir Wind Speed Gust Speed Precip Events Conditions
12:56 AM 37.9 °F 35.5 °F 27.1 °F 65% 30.09 in 10.0 mi SSE 3.5 mph - N/A   Overcast
1:56 AM 39.9 °F 37.8 °F 28.0 °F 63% 30.07 in 10.0 mi Variable 3.5 mph - 0.00 in   Overcast
2:56 AM 39.9 °F - 31.1 °F 71% 30.06 in 10.0 mi Calm Calm - 0.01 in   Mostly Cloudy
3:14 AM 39.2 °F - 32.0 °F 75% 30.01 in 10.0 mi Calm Calm - N/A   Mostly Cloudy
3:22 AM 37.4 °F - 32.0 °F 81% 30.02 in 6.0 mi Calm Calm - 0.01 in Rain Light Rain
3:31 AM 37.4 °F 34.9 °F 33.8 °F 87% 30.03 in 2.0 mi SW 3.5 mph - 0.04 in Rain Rain
3:40 AM 35.6 °F 32.8 °F 33.8 °F 93% 30.02 in 1.5 mi SSE 3.5 mph - 0.08 in Rain Rain
3:47 AM 35.6 °F - 35.6 °F 100% 30.02 in 1.0 mi Calm Calm - 0.10 in Rain Rain
3:56 AM 36.9 °F - 34.9 °F 93% 30.09 in 1.5 mi Calm Calm - 0.13 in Rain Rain
4:02 AM 37.4 °F 34.9 °F 35.6 °F 93% 30.01 in 3.0 mi East 3.5 mph - 0.01 in Rain Light Rain
4:40 AM 37.4 °F - 35.6 °F 93% 29.99 in 1.2 mi Calm Calm - 0.04 in Rain Light Rain
4:42 AM 37.4 °F - 35.6 °F 93% 29.99 in 0.8 mi Calm Calm - 0.04 in Rain Light Rain
4:56 AM 36.0 °F - 34.9 °F 96% 30.06 in 0.5 mi Calm Calm - 0.04 in Fog , Rain Light Rain
5:05 AM 37.4 °F 34.9 °F 35.6 °F 93% 29.99 in 1.0 mi NNE 3.5 mph - 0.01 in Rain Light Rain
5:08 AM 37.4 °F - 35.6 °F 93% 30.00 in 1.5 mi Calm Calm - 0.01 in Rain Light Rain
5:11 AM 37.4 °F - 35.6 °F 93% 30.00 in 3.0 mi Calm Calm - 0.01 in Rain Light Rain
5:22 AM 35.6 °F - 35.6 °F 100% 30.00 in 2.0 mi Calm Calm - 0.02 in Rain Light Rain
5:27 AM 35.6 °F - 35.6 °F 100% 30.00 in 1.2 mi Calm Calm - 0.02 in Rain Light Rain
5:29 AM 35.6 °F - 35.6 °F 100% 29.99 in 0.8 mi Calm Calm - 0.02 in Rain Light Rain
5:38 AM 37.4 °F - 37.4 °F 100% 30.00 in 1.2 mi Calm Calm - 0.03 in Rain Light Rain
5:40 AM 37.4 °F - 37.4 °F 100% 30.00 in 2.0 mi Calm Calm - 0.03 in Rain Light Rain
5:49 AM 37.4 °F - 37.4 °F 100% 30.01 in 1.8 mi Calm Calm - 0.04 in Rain Light Rain
6:02 AM 37.4 °F - 35.6 °F 93% 30.00 in 1.5 mi Calm Calm - 0.01 in Rain Light Rain
6:23 AM 37.4 °F - 37.4 °F 100% 29.99 in 2.5 mi Calm Calm - 0.03 in Rain Light Rain
6:33 AM 37.4 °F - 37.4 °F 100% 29.98 in 5.0 mi Calm Calm - 0.03 in Rain Light Rain
6:56 AM 37.9 °F 35.5 °F 37.9 °F 100% 30.06 in 2.5 mi East 3.5 mph - 0.05 in Rain Light Rain
7:06 AM 39.2 °F - 37.4 °F 93% 29.99 in 3.0 mi Calm Calm - 0.00 in Rain Light Rain
7:09 AM 37.4 °F - 37.4 °F 100% 29.98 in 1.8 mi Calm Calm - 0.00 in Rain Light Rain
7:22 AM 37.4 °F 32.8 °F 37.4 °F 100% 30.00 in 1.0 mi WSW 5.8 mph - 0.01 in Rain Light Rain
7:24 AM 37.4 °F - 37.4 °F 100% 30.00 in 0.5 mi Calm Calm - 0.01 in Fog , Rain Light Rain
7:35 AM 37.4 °F 33.8 °F 37.4 °F 100% 29.99 in 1.0 mi SE 4.6 mph - 0.01 in   Overcast
7:38 AM 37.4 °F - 37.4 °F 100% 29.98 in 2.0 mi Calm Calm - 0.01 in   Overcast
7:43 AM 37.4 °F - 37.4 °F 100% 29.99 in 3.0 mi Calm Calm - 0.01 in   Overcast
7:56 AM 37.9 °F - 37.9 °F 100% 30.05 in 5.0 mi Calm Calm - 0.01 in   Overcast
8:07 AM 39.2 °F - 37.4 °F 93% 29.99 in 1.8 mi Calm Calm - N/A   Overcast
8:22 AM 39.2 °F - 39.2 °F 100% 29.98 in 3.0 mi Calm Calm - N/A   Overcast
8:56 AM 39.9 °F - 38.8 °F 96% 30.06 in 3.0 mi Calm Calm - N/A   Overcast
9:29 AM 39.2 °F - 39.2 °F 100% 30.00 in 3.0 mi Calm Calm - N/A   Overcast
9:38 AM 39.2 °F - 39.2 °F 100% 30.00 in 1.8 mi Calm Calm - N/A   Overcast
9:42 AM 39.2 °F - 39.2 °F 100% 30.00 in 1.0 mi Calm Calm - N/A   Overcast
9:56 AM 41.0 °F - 39.9 °F 96% 30.07 in 0.8 mi Calm Calm - N/A   Overcast
10:24 AM 42.8 °F - 42.8 °F 100% 30.00 in 1.0 mi Calm Calm - N/A   Overcast
10:36 AM 42.8 °F 41.1 °F 42.8 °F 100% 29.99 in 1.5 mi SSE 3.5 mph - N/A   Overcast
10:56 AM 43.0 °F 41.3 °F 43.0 °F 100% 30.07 in 0.8 mi WSW 3.5 mph - N/A   Overcast
11:04 AM 42.8 °F - 42.8 °F 100% 30.00 in 0.2 mi Calm Calm - 0.00 in Fog , Rain Light Rain
11:11 AM 42.8 °F - 42.8 °F 100% 29.99 in 0.5 mi Calm Calm - 0.01 in Fog , Rain Light Rain
11:16 AM 42.8 °F - 42.8 °F 100% 29.99 in 1.0 mi Calm Calm - 0.01 in Rain Light Rain
11:27 AM 42.8 °F - 42.8 °F 100% 29.99 in 1.2 mi Calm Calm - 0.01 in Rain Light Rain
11:35 AM 44.6 °F - 42.8 °F 93% 29.99 in 1.8 mi Calm Calm - 0.02 in Rain Light Rain
11:56 AM 43.9 °F - 43.9 °F 100% 30.06 in 1.5 mi Calm Calm - 0.02 in Rain Light Rain
12:14 PM 44.6 °F - 44.6 °F 100% 29.98 in 1.8 mi Calm Calm - 0.00 in Rain Light Rain
12:28 PM 44.6 °F - 44.6 °F 100% 29.97 in 2.0 mi Calm Calm - 0.01 in Rain Light Rain
12:56 PM 45.9 °F 43.6 °F 45.0 °F 97% 30.03 in 3.0 mi SSW 4.6 mph - 0.01 in Rain Light Rain
1:56 PM 45.9 °F - 45.9 °F 100% 30.01 in 4.0 mi Calm Calm - 0.01 in   Overcast
2:30 PM 46.4 °F - 46.4 °F 100% 29.94 in 2.0 mi Calm Calm - 0.00 in   Overcast
2:44 PM 46.4 °F - 46.4 °F 100% 29.95 in 4.0 mi Calm Calm - 0.00 in   Overcast
2:56 PM 46.9 °F - 46.9 °F 100% 30.00 in 5.0 mi Calm Calm - 0.00 in   Overcast
3:28 PM 46.4 °F - 46.4 °F 100% 29.95 in 5.0 mi Calm Calm - N/A   Overcast
3:56 PM 46.9 °F - 45.9 °F 96% 30.01 in 5.0 mi Calm Calm - 0.00 in Rain Light Rain
4:27 PM 46.4 °F - 46.4 °F 100% 29.95 in 6.0 mi Calm Calm - 0.00 in   Mostly Cloudy
4:56 PM 45.9 °F - 45.9 °F 100% 30.01 in 6.0 mi Calm Calm - 0.00 in   Mostly Cloudy
5:28 PM 46.4 °F - 46.4 °F 100% 29.94 in 7.0 mi Calm Calm - 0.01 in   Mostly Cloudy
5:56 PM 46.9 °F - 45.9 °F 96% 30.00 in 5.0 mi Calm Calm - 0.01 in Rain Light Rain
6:05 PM 46.4 °F - 46.4 °F 100% 29.94 in 5.0 mi Calm Calm - 0.00 in Rain Light Rain
6:27 PM 46.4 °F - 46.4 °F 100% 29.94 in 5.0 mi Calm Calm - 0.01 in Rain Light Rain
6:48 PM 46.4 °F - 46.4 °F 100% 29.94 in 5.0 mi Calm Calm - 0.02 in Rain Light Rain
7:15 PM 46.4 °F - 46.4 °F 100% 29.94 in 3.0 mi Calm Calm - 0.00 in Rain Light Rain
7:28 PM 46.4 °F - 46.4 °F 100% 29.94 in 2.5 mi Calm Calm - 0.01 in Rain Light Rain
7:35 PM 46.4 °F - 46.4 °F 100% 29.94 in 2.0 mi Calm Calm - 0.01 in Rain Light Rain
7:56 PM 46.9 °F - 46.9 °F 100% 30.01 in 2.5 mi Calm Calm - 0.02 in Rain Light Rain
8:05 PM 46.4 °F - 46.4 °F 100% 29.94 in 2.0 mi Calm Calm - 0.01 in Rain Light Rain
8:12 PM 46.4 °F - 46.4 °F 100% 29.94 in 1.5 mi Calm Calm - 0.01 in Rain Light Rain
8:23 PM 46.4 °F - 46.4 °F 100% 29.94 in 2.5 mi Calm Calm - 0.02 in Rain Light Rain
8:34 PM 46.4 °F - 46.4 °F 100% 29.94 in 2.0 mi Calm Calm - 0.03 in Rain Light Rain
8:46 PM 46.4 °F - 46.4 °F 100% 29.93 in 3.0 mi Calm Calm - 0.04 in Rain Light Rain
8:56 PM 46.9 °F - 46.9 °F 100% 29.99 in 3.0 mi Calm Calm - 0.05 in Rain Light Rain
9:05 PM 46.4 °F - 46.4 °F 100% 29.93 in 4.0 mi Calm Calm - 0.00 in Rain Light Rain
9:26 PM 46.4 °F - 46.4 °F 100% 29.92 in 2.5 mi Calm Calm - 0.01 in Rain Light Rain
9:49 PM 46.4 °F - 46.4 °F 100% 29.91 in 2.0 mi Calm Calm - 0.02 in Rain Light Rain
9:56 PM 46.9 °F - 46.9 °F 100% 29.97 in 2.0 mi Calm Calm - 0.03 in Rain Light Rain
10:12 PM 46.4 °F 45.2 °F 46.4 °F 100% 29.90 in 2.0 mi ENE 3.5 mph - 0.01 in Rain Light Rain
10:22 PM 46.4 °F - 46.4 °F 100% 29.90 in 1.2 mi Calm Calm - 0.03 in Rain Light Rain
10:32 PM 46.4 °F - 46.4 °F 100% 29.90 in 0.5 mi Calm Calm - 0.04 in Fog , Rain Light Rain
10:56 PM 45.9 °F - 45.9 °F 100% 29.96 in 0.5 mi Calm Calm - 0.06 in Fog , Rain Light Rain
11:04 PM 46.4 °F - 46.4 °F 100% 29.89 in 1.0 mi Calm Calm - 0.01 in Rain Light Rain
11:06 PM 46.4 °F - 46.4 °F 100% 29.89 in 1.2 mi Calm Calm - 0.01 in Rain Light Rain
11:18 PM 46.4 °F - 46.4 °F 100% 29.89 in 1.0 mi Calm Calm - 0.02 in Rain Light Rain
11:23 PM 46.4 °F - 46.4 °F 100% 29.89 in 1.5 mi Calm Calm - 0.02 in Rain Light Rain
11:29 PM 46.4 °F - 46.4 °F 100% 29.89 in 1.0 mi Calm Calm - 0.02 in Rain Light Rain
11:34 PM 46.4 °F - 46.4 °F 100% 29.89 in 0.5 mi Calm Calm - 0.02 in Fog , Rain Light Rain
11:48 PM 46.4 °F - 46.4 °F 100% 29.89 in 0.2 mi Calm Calm - 0.02 in Fog , Rain Light Rain
11:56 PM 45.9 °F - 45.9 °F 100% 29.94 in 0.5 mi Calm Calm - 0.03 in Fog , Rain Light Rain